Weather History for KRAL - November, 2012

Change the Weather History Date:

Friday, November 16, 2012

  Actual Average Record
Temperature  
Mean Temperature 63 °F 60 °F  
Max Temperature 73 °F 74 °F 92 °F (1919)
Min Temperature 53 °F 47 °F 31 °F (1935)
Degree Days  
Heating Degree Days 2 5  
Month to date heating degree days 56 64  
Since 1 July heating degree days 70 99  
Cooling Degree Days 0 1  
Month to date cooling degree days 26 22  
Year to date cooling degree days 2220 1751  
Growing Degree Days 13 (Base 50)    
Moisture  
Dew Point 43 °F    
Average Humidity 46    
Maximum Humidity 66    
Minimum Humidity 25    
Precipitation  
Precipitation T in 0.03 in 0.89 in (1972)
Month to date precipitation 0.07 0.52  
Year to date precipitation 3.17 10.39  
Since 1 July precipitation 0.32 1.20  
Snow  
Snow 0.00 in - - ()
Month to date snowfall 0.0  
Year to date snowfall 0.0  
Since 1 July snowfall 0.0  
Snow Depth 0.00 in    
Sea Level Pressure  
Sea Level Pressure 30.04 in    
Wind  
Wind Speed 3 mph (NW)    
Max Wind Speed 8 mph    
Max Gust Speed 10 mph    
Visibility 10 miles    
Events Rain    
T = Trace of Precipitation, MM = Missing Value Source: NWS Daily Summary

Daily Weather History Graph

Daily Weather History Graph

Search for Another Location

Airport or City:

Trip Planner

Search our weather history database for the weather conditions in past years. The results will help you decide how hot, cold, wet, or windy it might be!

Date:

Astronomy

Nov. 16, 2012 Rise Set
Actual Time 6:23 AM PST 4:45 PM PST
Civil Twilight 5:57 AM PST 5:11 PM PST
Nautical Twilight 5:26 AM PST 5:42 PM PST
Astronomical Twilight 4:57 AM PST 6:11 PM PST
Moon 9:20 AM PST (11/16) 7:51 PM PST (11/16)
Length of Visible Light 11h 14m
Length of Day
10h 21m
Waxing Crescent, 12% of the Moon is Illuminated
Nov 16
Waxing Crescent
Nov 20
First Quarter
Nov 28
Full
Dec 6
Last Quarter
Dec 13
New

Hourly Weather History & Observations

Time (PST) Temp. Dew Point Humidity Pressure Visibility Wind Dir Wind Speed Gust Speed Precip Events Conditions
12:53 AM 57.0 °F 45.0 °F 64% 30.07 in 10.0 mi Calm Calm - N/A   Mostly Cloudy
1:53 AM 55.9 °F 45.0 °F 67% 30.07 in 10.0 mi NNE 3.5 mph - 0.00 in   Overcast
2:53 AM 55.0 °F 45.0 °F 69% 30.04 in 10.0 mi Calm Calm - N/A   Overcast
3:53 AM 55.0 °F 45.0 °F 69% 30.04 in 10.0 mi WSW 3.5 mph - N/A   Scattered Clouds
4:53 AM 55.0 °F 44.1 °F 67% 30.04 in 10.0 mi ENE 3.5 mph - N/A   Mostly Cloudy
5:53 AM 55.0 °F 45.0 °F 69% 30.06 in 10.0 mi NE 4.6 mph - 0.00 in Rain Light Rain
6:53 AM 54.0 °F 45.0 °F 72% 30.07 in 9.0 mi Calm Calm - 0.00 in   Mostly Cloudy
7:53 AM 57.9 °F 43.0 °F 58% 30.09 in 10.0 mi East 4.6 mph - N/A   Mostly Cloudy
8:53 AM 61.0 °F 39.9 °F 46% 30.09 in 10.0 mi Variable 3.5 mph - N/A   Mostly Cloudy
9:53 AM 66.0 °F 35.1 °F 32% 30.09 in 10.0 mi East 4.6 mph - N/A   Mostly Cloudy
10:53 AM 69.1 °F 34.0 °F 27% 30.07 in 10.0 mi Variable 4.6 mph - N/A   Overcast
11:53 AM 70.0 °F 33.1 °F 26% 30.05 in 10.0 mi Variable 3.5 mph - N/A   Mostly Cloudy
12:53 PM 72.0 °F 34.0 °F 25% 30.02 in 10.0 mi Variable 4.6 mph - N/A   Overcast
1:53 PM 72.0 °F 35.1 °F 26% 30.00 in 10.0 mi NW 5.8 mph - N/A   Overcast
2:53 PM 72.0 °F 35.1 °F 26% 29.98 in 10.0 mi Calm Calm - N/A   Mostly Cloudy
3:53 PM 71.1 °F 35.1 °F 27% 29.98 in 10.0 mi West 5.8 mph - N/A   Scattered Clouds
4:53 PM 68.0 °F 36.0 °F 31% 29.98 in 10.0 mi West 5.8 mph - N/A   Partly Cloudy
5:53 PM 66.0 °F 43.0 °F 43% 30.00 in 10.0 mi West 6.9 mph - N/A   Overcast
6:53 PM 63.0 °F 48.9 °F 60% 30.02 in 10.0 mi West 5.8 mph - N/A   Overcast
7:53 PM 62.1 °F 52.0 °F 70% 30.04 in 10.0 mi West 9.2 mph - N/A   Overcast
8:53 PM 62.1 °F 53.1 °F 72% 30.05 in 10.0 mi Calm Calm - 0.00 in Rain Light Rain
9:53 PM 62.1 °F 52.0 °F 70% 30.05 in 10.0 mi NNW 3.5 mph - 0.00 in   Overcast
10:53 PM 61.0 °F 52.0 °F 72% 30.05 in 10.0 mi Calm Calm - N/A   Overcast
11:53 PM 60.1 °F 51.1 °F 72% 30.06 in 10.0 mi Calm Calm - N/A   Overcast